CLX1806 SACO-SAEZ

Flight info

Callsign CLX1806
Flight time N/A
Altitude 31000
Route UTRAX UW24 SNT
Aircraft B747/H-V/N

Departure

Time 2026-04-27 22:31
Airport Ingeniero Aeronáutico Ambrosio L.V. Taravella International Airport (SACO)

Arrival

Time N/A
Airport Ezeiza International Airport - Ministro Pistarini (SAEZ)
Time Latitude Longitude Altitude Speed Heading
2026-04-27 22:09 -31.31308 -64.21070 1619 ft 0 kts 49°
2026-04-27 22:19 -31.31312 -64.21077 1619 ft 2 kts 49°
2026-04-27 22:20 -31.31323 -64.21093 1619 ft 3 kts 73°
2026-04-27 22:20 -31.31319 -64.21115 1619 ft 3 kts 134°
2026-04-27 22:20 -31.31304 -64.21130 1619 ft 3 kts 140°
2026-04-27 22:20 -31.31293 -64.21141 1619 ft 0 kts 140°
2026-04-27 22:22 -31.31293 -64.21140 1619 ft 0 kts 140°
2026-04-27 22:22 -31.31295 -64.21139 1619 ft 1 kts 140°
2026-04-27 22:22 -31.31309 -64.21132 1619 ft 4 kts 161°
2026-04-27 22:22 -31.31345 -64.21131 1619 ft 7 kts 179°
2026-04-27 22:23 -31.31399 -64.21122 1619 ft 9 kts 163°
2026-04-27 22:23 -31.31446 -64.21069 1619 ft 11 kts 121°
2026-04-27 22:23 -31.31476 -64.21039 1619 ft 5 kts 164°
2026-04-27 22:23 -31.31522 -64.21035 1619 ft 9 kts 176°
2026-04-27 22:24 -31.31605 -64.21032 1619 ft 15 kts 180°
2026-04-27 22:24 -31.31636 -64.21032 1619 ft 1 kts 180°
2026-04-27 22:24 -31.31638 -64.21032 1619 ft 2 kts 180°
2026-04-27 22:24 -31.31656 -64.21032 1619 ft 6 kts 180°
2026-04-27 22:25 -31.31716 -64.21032 1619 ft 11 kts 180°
2026-04-27 22:25 -31.31755 -64.21024 1619 ft 3 kts 148°
2026-04-27 22:25 -31.31766 -64.21000 1619 ft 4 kts 104°
2026-04-27 22:25 -31.31771 -64.20958 1619 ft 6 kts 97°
2026-04-27 22:26 -31.31759 -64.20917 1619 ft 6 kts 51°
2026-04-27 22:26 -31.31721 -64.20887 1619 ft 8 kts 28°
2026-04-27 22:26 -31.31669 -64.20856 1619 ft 7 kts 27°
2026-04-27 22:26 -31.31653 -64.20840 1619 ft 2 kts 56°
2026-04-27 22:27 -31.31651 -64.20828 1619 ft 1 kts 82°
2026-04-27 22:27 -31.31651 -64.20820 1619 ft 3 kts 91°
2026-04-27 22:27 -31.31661 -64.20800 1619 ft 4 kts 131°
2026-04-27 22:27 -31.31696 -64.20794 1619 ft 8 kts 197°
2026-04-27 22:28 -31.31777 -64.20817 1619 ft 13 kts 180°
2026-04-27 22:28 -31.31874 -64.20813 1619 ft 15 kts 179°
2026-04-27 22:28 -31.31988 -64.20813 1619 ft 17 kts 180°
2026-04-27 22:28 -31.32116 -64.20813 1619 ft 20 kts 180°
2026-04-27 22:29 -31.32257 -64.20815 1619 ft 17 kts 180°
2026-04-27 22:29 -31.32314 -64.20825 1619 ft 5 kts 190°
2026-04-27 22:29 -31.32341 -64.20809 1619 ft 4 kts 127°
2026-04-27 22:29 -31.32340 -64.20777 1619 ft 4 kts 63°
2026-04-27 22:30 -31.32334 -64.20768 1619 ft 2 kts 48°
2026-04-27 22:30 -31.32320 -64.20752 1619 ft 0 kts 44°
2026-04-27 22:30 -31.32319 -64.20751 1619 ft 1 kts 44°
2026-04-27 22:31 -31.32030 -64.20420 1619 ft 117 kts 44°
2026-04-27 22:31 -31.31185 -64.19464 1635 ft 217 kts 44°
2026-04-27 22:31 -31.30038 -64.18168 2840 ft 243 kts 44°
2026-04-27 22:31 -31.28902 -64.16416 3902 ft 295 kts 55°
2026-04-27 22:32 -31.28099 -64.14071 4860 ft 330 kts 72°